Year,Month,Day,Hour,Minute,Value (Times are PST for temperature in C)
2013,03,24,12,18,6.80
2013,03,24,12,19,6.90
2013,03,24,12,20,6.90
2013,03,24,12,21,6.90
2013,03,24,12,22,7.00
2013,03,24,12,23,7.00
2013,03,24,12,24,7.00
2013,03,24,12,25,7.10
2013,03,24,12,26,7.10
2013,03,24,12,27,7.00
2013,03,24,12,28,7.00
2013,03,24,12,29,7.00
2013,03,24,12,30,7.00
2013,03,24,12,31,7.00
2013,03,24,12,32,7.10
2013,03,24,12,33,7.00
2013,03,24,12,34,7.00
2013,03,24,12,35,6.90
2013,03,24,12,36,6.90
2013,03,24,12,37,6.90
2013,03,24,12,38,6.90
2013,03,24,12,39,6.90
2013,03,24,12,40,7.00
2013,03,24,12,41,7.00
2013,03,24,12,42,7.10
2013,03,24,12,43,7.10
2013,03,24,12,44,7.10
2013,03,24,12,45,7.10
2013,03,24,12,46,7.00
2013,03,24,12,47,6.90
2013,03,24,12,48,7.00
2013,03,24,12,49,7.10
2013,03,24,12,50,7.10
2013,03,24,12,51,7.20
2013,03,24,12,52,7.20
2013,03,24,12,53,7.20
2013,03,24,12,54,7.10
2013,03,24,12,55,7.10
2013,03,24,12,56,7.10
2013,03,24,12,57,7.10
2013,03,24,12,58,7.10
2013,03,24,12,59,7.10
2013,03,24,13,00,7.00
2013,03,24,13,01,7.00
2013,03,24,13,02,7.00
2013,03,24,13,03,7.00
2013,03,24,13,04,7.00
2013,03,24,13,05,7.00
2013,03,24,13,06,7.10
2013,03,24,13,07,7.10
2013,03,24,13,08,7.00
2013,03,24,13,09,7.00
2013,03,24,13,10,6.90
2013,03,24,13,11,6.90
2013,03,24,13,12,6.90
2013,03,24,13,13,6.90
2013,03,24,13,14,7.00
2013,03,24,13,15,7.00
2013,03,24,13,16,7.10
2013,03,24,13,17,7.10
2013,03,24,13,18,7.10
2013,03,24,13,19,7.10
2013,03,24,13,20,7.10
2013,03,24,13,21,7.10
2013,03,24,13,22,7.20
2013,03,24,13,23,7.20
2013,03,24,13,24,7.20
2013,03,24,13,25,7.20
2013,03,24,13,26,7.20
2013,03,24,13,27,7.20
2013,03,24,13,28,7.20
2013,03,24,13,29,7.10
2013,03,24,13,30,7.10
2013,03,24,13,31,7.10
2013,03,24,13,32,7.20
2013,03,24,13,33,7.20
2013,03,24,13,34,7.20
2013,03,24,13,35,7.20
2013,03,24,13,36,7.10
2013,03,24,13,37,7.10
2013,03,24,13,38,7.10
2013,03,24,13,39,7.00
2013,03,24,13,40,7.00
2013,03,24,13,41,7.00
2013,03,24,13,42,7.10
2013,03,24,13,43,7.10
2013,03,24,13,44,7.10
2013,03,24,13,45,7.10
2013,03,24,13,46,7.00
2013,03,24,13,47,7.00
2013,03,24,13,48,6.90
2013,03,24,13,49,6.90
2013,03,24,13,50,6.90
2013,03,24,13,51,6.90
2013,03,24,13,52,6.90
2013,03,24,13,53,6.90
2013,03,24,13,54,6.90
2013,03,24,13,55,6.90
2013,03,24,13,56,6.90
2013,03,24,13,57,6.90
2013,03,24,13,58,6.90
2013,03,24,13,59,6.90
2013,03,24,14,00,6.90
2013,03,24,14,01,6.90
2013,03,24,14,02,7.00
2013,03,24,14,03,7.00
2013,03,24,14,04,7.00
2013,03,24,14,05,7.00
2013,03,24,14,06,7.10
2013,03,24,14,07,7.20
2013,03,24,14,08,7.20
2013,03,24,14,09,7.20
2013,03,24,14,10,7.20
2013,03,24,14,11,7.20
2013,03,24,14,12,7.20
2013,03,24,14,13,7.30
2013,03,24,14,14,7.40
2013,03,24,14,15,7.40
2013,03,24,14,16,7.50
2013,03,24,14,17,7.50
2013,03,24,14,18,7.60
2013,03,24,14,19,7.50
2013,03,24,14,20,7.60
2013,03,24,14,21,7.60
2013,03,24,14,22,7.70
2013,03,24,14,23,7.70
2013,03,24,14,24,7.70
2013,03,24,14,25,7.70
2013,03,24,14,26,7.60
2013,03,24,14,27,7.60
2013,03,24,14,28,7.60
2013,03,24,14,29,7.60
2013,03,24,14,30,7.70
2013,03,24,14,31,7.70
2013,03,24,14,32,7.80
2013,03,24,14,33,7.80
2013,03,24,14,34,7.80
2013,03,24,14,35,7.80
2013,03,24,14,36,7.80
2013,03,24,14,37,7.90
2013,03,24,14,38,7.90
2013,03,24,14,39,8.00
2013,03,24,14,40,8.00
2013,03,24,14,41,8.10
2013,03,24,14,42,8.10
2013,03,24,14,43,8.10
2013,03,24,14,44,8.10
2013,03,24,14,45,8.10
2013,03,24,14,46,8.10
2013,03,24,14,47,8.10
2013,03,24,14,48,8.10
2013,03,24,14,49,8.20
2013,03,24,14,50,8.20
2013,03,24,14,51,8.30
2013,03,24,14,52,8.40
2013,03,24,14,53,8.40
2013,03,24,14,54,8.40
2013,03,24,14,55,8.30
2013,03,24,14,56,8.40
2013,03,24,14,57,8.40
2013,03,24,14,58,8.40
2013,03,24,14,59,8.50
2013,03,24,15,00,8.50
2013,03,24,15,01,8.50
2013,03,24,15,02,8.50
2013,03,24,15,03,8.60
2013,03,24,15,04,8.60
2013,03,24,15,05,8.60
2013,03,24,15,06,8.60
2013,03,24,15,07,8.60
2013,03,24,15,08,8.70
2013,03,24,15,09,8.80
2013,03,24,15,10,8.80
2013,03,24,15,11,8.90
2013,03,24,15,12,8.90
2013,03,24,15,13,8.90
2013,03,24,15,14,9.00
2013,03,24,15,15,9.00
2013,03,24,15,16,9.00
2013,03,24,15,17,8.90
2013,03,24,15,18,8.90
2013,03,24,15,19,8.90
2013,03,24,15,20,8.80
2013,03,24,15,21,8.80
2013,03,24,15,22,8.80
2013,03,24,15,23,8.70
2013,03,24,15,24,8.70
2013,03,24,15,25,8.70
2013,03,24,15,26,8.80
2013,03,24,15,27,8.90
2013,03,24,15,28,8.90
2013,03,24,15,29,9.00
2013,03,24,15,30,9.00
2013,03,24,15,31,9.00
2013,03,24,15,32,9.00
2013,03,24,15,33,9.00
2013,03,24,15,34,9.00
2013,03,24,15,35,9.00
2013,03,24,15,36,8.90
2013,03,24,15,37,8.90
2013,03,24,15,38,8.90
2013,03,24,15,39,8.90
2013,03,24,15,40,9.00
2013,03,24,15,41,9.10
2013,03,24,15,42,9.20
2013,03,24,15,43,9.30
2013,03,24,15,44,9.30
2013,03,24,15,45,9.30
2013,03,24,15,46,9.30
2013,03,24,15,47,9.30
2013,03,24,15,48,9.30
2013,03,24,15,49,9.20
2013,03,24,15,50,9.20
2013,03,24,15,51,9.20
2013,03,24,15,52,9.30
2013,03,24,15,53,9.30
2013,03,24,15,54,9.30
2013,03,24,15,55,9.40
2013,03,24,15,56,9.40
2013,03,24,15,57,9.30
2013,03,24,15,58,9.40
2013,03,24,15,59,9.50
2013,03,24,16,00,9.50
2013,03,24,16,01,9.60
2013,03,24,16,02,9.60
2013,03,24,16,03,9.50
2013,03,24,16,04,9.40
2013,03,24,16,05,9.30
2013,03,24,16,06,9.30
2013,03,24,16,07,9.20
2013,03,24,16,08,9.20
2013,03,24,16,09,9.20
2013,03,24,16,10,9.20
2013,03,24,16,11,9.10
2013,03,24,16,12,9.00
2013,03,24,16,13,8.90
2013,03,24,16,14,8.80
2013,03,24,16,15,8.70
2013,03,24,16,16,8.70
2013,03,24,16,17,8.70
2013,03,24,16,18,8.70
2013,03,24,16,19,8.60
2013,03,24,16,20,8.60
2013,03,24,16,21,8.60
2013,03,24,16,22,8.60
2013,03,24,16,23,8.60
2013,03,24,16,24,8.50
2013,03,24,16,25,8.50
2013,03,24,16,26,8.50
2013,03,24,16,27,8.50
2013,03,24,16,28,8.40
2013,03,24,16,29,8.40
2013,03,24,16,30,8.40
2013,03,24,16,31,8.40
2013,03,24,16,32,8.40
2013,03,24,16,33,8.40
2013,03,24,16,34,8.40
2013,03,24,16,35,8.40
2013,03,24,16,36,8.40
2013,03,24,16,37,8.40
2013,03,24,16,38,8.40
2013,03,24,16,39,8.30
2013,03,24,16,40,8.30
2013,03,24,16,41,8.30
2013,03,24,16,42,8.30
2013,03,24,16,43,8.30
2013,03,24,16,44,8.30
2013,03,24,16,45,8.30
2013,03,24,16,46,8.40
2013,03,24,16,47,8.40
2013,03,24,16,48,8.40
2013,03,24,16,49,8.40
2013,03,24,16,50,8.40
2013,03,24,16,51,8.40
2013,03,24,16,52,8.40
2013,03,24,16,53,8.50
2013,03,24,16,54,8.50
2013,03,24,16,55,8.50
2013,03,24,16,56,8.40
2013,03,24,16,57,8.40
2013,03,24,16,58,8.40
2013,03,24,16,59,8.40
2013,03,24,17,00,8.30
2013,03,24,17,01,8.30
2013,03,24,17,02,8.30
2013,03,24,17,03,8.30
2013,03,24,17,04,8.30
2013,03,24,17,05,8.30
2013,03,24,17,06,8.30
2013,03,24,17,07,8.30
2013,03,24,17,08,8.20
2013,03,24,17,09,8.20
2013,03,24,17,10,8.20
2013,03,24,17,11,8.10
2013,03,24,17,12,8.10
2013,03,24,17,13,8.10
2013,03,24,17,14,8.10
2013,03,24,17,15,8.10
2013,03,24,17,16,8.10
2013,03,24,17,17,8.10
2013,03,24,17,18,8.10
2013,03,24,17,19,8.10
2013,03,24,17,20,8.00
2013,03,24,17,21,8.00
2013,03,24,17,22,8.10
2013,03,24,17,23,8.10
2013,03,24,17,24,8.10
2013,03,24,17,25,8.10
2013,03,24,17,26,8.10
2013,03,24,17,27,8.00
2013,03,24,17,28,8.00
2013,03,24,17,29,8.00
2013,03,24,17,30,8.10
2013,03,24,17,31,8.10
2013,03,24,17,32,8.10
2013,03,24,17,33,8.10
2013,03,24,17,34,8.10
2013,03,24,17,35,8.10
2013,03,24,17,36,8.10
2013,03,24,17,37,8.10
2013,03,24,17,38,8.10
2013,03,24,17,39,8.10
2013,03,24,17,40,8.10
2013,03,24,17,41,8.10
2013,03,24,17,42,8.10
2013,03,24,17,43,8.10
2013,03,24,17,44,8.10
2013,03,24,17,45,8.10
2013,03,24,17,46,8.10
2013,03,24,17,47,8.10
2013,03,24,17,48,8.10
2013,03,24,17,49,8.20
2013,03,24,17,50,8.20
2013,03,24,17,51,8.20
2013,03,24,17,52,8.20
2013,03,24,17,53,8.20
2013,03,24,17,54,8.20
2013,03,24,17,55,8.20
2013,03,24,17,56,8.20
2013,03,24,17,57,8.20
2013,03,24,17,58,8.30
2013,03,24,17,59,8.30
2013,03,24,18,00,8.30
2013,03,24,18,01,8.30
2013,03,24,18,02,8.30
2013,03,24,18,03,8.30
2013,03,24,18,04,8.40
2013,03,24,18,05,8.40
2013,03,24,18,06,8.40
2013,03,24,18,07,8.40
2013,03,24,18,08,8.40
2013,03,24,18,09,8.40
2013,03,24,18,10,8.40
2013,03,24,18,11,8.40
2013,03,24,18,12,8.40
2013,03,24,18,13,8.40
2013,03,24,18,14,8.50
2013,03,24,18,15,8.50
2013,03,24,18,16,8.50
2013,03,24,18,17,8.50
2013,03,24,18,18,8.50
2013,03,24,18,19,8.50
2013,03,24,18,20,8.50
2013,03,24,18,21,8.50
2013,03,24,18,22,8.50
2013,03,24,18,23,8.50
2013,03,24,18,24,8.50
2013,03,24,18,25,8.50
2013,03,24,18,26,8.50
2013,03,24,18,27,8.60
2013,03,24,18,28,8.60
2013,03,24,18,29,8.60
2013,03,24,18,30,8.60
2013,03,24,18,31,8.60
2013,03,24,18,32,8.60
2013,03,24,18,33,8.60
2013,03,24,18,34,8.60
2013,03,24,18,35,8.60
2013,03,24,18,36,8.60
2013,03,24,18,37,8.60
2013,03,24,18,38,8.60
2013,03,24,18,39,8.60
2013,03,24,18,40,8.60
2013,03,24,18,41,8.60
2013,03,24,18,42,8.60
2013,03,24,18,43,8.60
